Superior, WI

10:06 PM CDT on March 24, 2017 (GMT -0500)
Bong

Weather History for KSUW - October, 2013

Change the Weather History Date:

Tuesday, October 15, 2013

  Actual Average Record
Temperature  
Mean Temperature 46 °F -  
Max Temperature 50 °F 54 °F 82 °F (1962)
Min Temperature 43 °F 37 °F 24 °F (2012)
Degree Days  
Heating Degree Days 19    
Moisture  
Dew Point 46 °F    
Average Humidity 94    
Maximum Humidity 98    
Minimum Humidity 86    
Precipitation  
Precipitation 1.31 in - - ()
Sea Level Pressure  
Sea Level Pressure 29.88 in    
Wind  
Wind Speed 15 mph (ENE)    
Max Wind Speed 24 mph    
Max Gust Speed 34 mph    
Visibility 8 miles    
Events Rain    
Averages and records for this station are not official NWS values.
T = Trace of Precipitation, MM = Missing Value Source: NWS Daily Summary

Daily Weather History Graph

Daily Weather History Graph

Search for Another Location

Airport or City:

Trip Planner

Search our weather history database for the weather conditions in past years. The results will help you decide how hot, cold, wet, or windy it might be!

Date:

Astronomy

Oct. 15, 2013 Rise Set
Actual Time 7:26 AM CDT 6:20 PM CDT
Civil Twilight 6:55 AM CDT 6:51 PM CDT
Nautical Twilight 6:20 AM CDT 7:26 PM CDT
Astronomical Twilight 5:45 AM CDT 8:01 PM CDT
Moon 4:36 PM CDT (10/15) 3:37 AM CDT (10/15)
Length of Visible Light 11h 55m
Length of Day
10h 54m
Waxing Gibbous, 88% of the Moon is Illuminated
Oct 15
Waxing Gibbous
Oct 18
Full
Oct 26
Last Quarter
Nov 3
New
Nov 9
First Quarter

Hourly Weather History & Observations

Time (CDT) Temp. Windchill Dew Point Humidity Pressure Visibility Wind Dir Wind Speed Gust Speed Precip Events Conditions
12:15 AM 49.6 °F - 45.5 °F 86% 30.12 in 10.0 mi ENE 15.0 mph 25.3 mph N/A   Overcast
12:35 AM 49.6 °F - 45.9 °F 87% 30.10 in 10.0 mi ENE 15.0 mph 23.0 mph N/A   Overcast
12:55 AM 49.5 °F - 45.7 °F 87% 30.09 in 10.0 mi ENE 10.4 mph 20.7 mph N/A   Overcast
1:15 AM 49.8 °F - 45.7 °F 86% 30.07 in 10.0 mi East 12.7 mph 23.0 mph N/A   Overcast
1:35 AM 49.6 °F - 46.2 °F 88% 30.09 in 10.0 mi East 12.7 mph 19.6 mph N/A Rain Rain
1:55 AM 49.1 °F - 46.6 °F 91% 30.09 in 7.0 mi East 10.4 mph - 0.02 in Rain Light Rain
2:15 AM 48.6 °F - 45.9 °F 90% 30.08 in 10.0 mi East 9.2 mph 16.1 mph 0.01 in Rain Light Rain
2:35 AM 48.4 °F - 45.1 °F 89% 30.06 in 10.0 mi East 12.7 mph 18.4 mph 0.03 in Rain Light Rain
2:55 AM 48.0 °F - 45.5 °F 91% 30.06 in 10.0 mi East 9.2 mph 16.1 mph 0.07 in Rain Rain
3:15 AM 48.2 °F - 45.0 °F 89% 30.05 in 10.0 mi East 11.5 mph 18.4 mph 0.03 in Rain Rain
3:35 AM 47.7 °F - 45.7 °F 93% 30.05 in 7.0 mi East 8.1 mph 16.1 mph 0.09 in Rain Rain
3:55 AM 47.7 °F - 45.9 °F 93% 30.03 in 7.0 mi East 10.4 mph - 0.15 in Rain Rain
4:15 AM 47.7 °F - 45.9 °F 93% 30.02 in 7.0 mi East 16.1 mph 19.6 mph 0.05 in Rain Heavy Rain
4:35 AM 47.5 °F - 45.9 °F 94% 30.00 in 7.0 mi East 17.3 mph 25.3 mph 0.12 in Rain Rain
4:55 AM 47.7 °F - 45.9 °F 93% 29.98 in 10.0 mi East 16.1 mph 23.0 mph 0.17 in Rain Light Rain
5:15 AM 47.3 °F - 45.7 °F 94% 29.96 in 7.0 mi East 16.1 mph 25.3 mph 0.06 in Rain Rain
5:35 AM 47.3 °F - 45.5 °F 93% 29.95 in 7.0 mi East 16.1 mph 26.5 mph 0.11 in Rain Rain
5:55 AM 47.3 °F - 45.7 °F 94% 29.94 in 7.0 mi East 17.3 mph 28.8 mph 0.15 in Rain Light Rain
6:15 AM 47.3 °F - 45.7 °F 94% 29.91 in 7.0 mi ENE 18.4 mph 25.3 mph 0.03 in Rain Light Rain
6:35 AM 47.3 °F - 45.7 °F 94% 29.91 in 10.0 mi East 15.0 mph 26.5 mph 0.05 in Rain Light Rain
6:55 AM 47.3 °F - 45.9 °F 95% 29.90 in 7.0 mi ENE 16.1 mph 26.5 mph 0.09 in Rain Light Rain
7:15 AM 47.3 °F - 45.9 °F 95% 29.89 in 10.0 mi East 16.1 mph 24.2 mph 0.01 in Rain Rain
7:35 AM 47.3 °F - 45.9 °F 95% 29.88 in 7.0 mi East 16.1 mph 24.2 mph 0.04 in Rain Rain
7:55 AM 47.3 °F - 45.9 °F 95% 29.87 in 10.0 mi East 16.1 mph 26.5 mph 0.07 in Rain Light Rain
8:15 AM 47.7 °F - 46.6 °F 96% 29.87 in 10.0 mi East 15.0 mph 26.5 mph 0.01 in Rain Light Rain
8:35 AM 47.7 °F - 46.6 °F 96% 29.86 in 7.0 mi ENE 17.3 mph 27.6 mph 0.02 in Rain Rain
8:55 AM 47.5 °F - 46.6 °F 97% 29.85 in 7.0 mi ENE 17.3 mph 29.9 mph 0.08 in Rain Rain
9:15 AM 47.5 °F - 46.6 °F 97% 29.85 in 5.0 mi ENE 18.4 mph 26.5 mph 0.03 in Rain Rain
9:35 AM 47.5 °F - 46.8 °F 97% 29.84 in 4.0 mi ENE 17.3 mph 25.3 mph 0.10 in Rain Rain
9:55 AM 47.7 °F - 46.8 °F 97% 29.84 in 5.0 mi ENE 15.0 mph 26.5 mph 0.16 in Rain Light Rain
10:15 AM 47.7 °F - 46.8 °F 97% 29.84 in 7.0 mi ENE 19.6 mph 25.3 mph 0.02 in Rain Light Rain
10:35 AM 47.8 °F - 46.8 °F 96% 29.83 in 10.0 mi ENE 15.0 mph 27.6 mph 0.02 in   Light Drizzle
10:55 AM 48.2 °F - 47.3 °F 97% 29.83 in 5.0 mi ENE 16.1 mph 25.3 mph 0.06 in Rain Light Rain
11:15 AM 48.2 °F - 47.5 °F 97% 29.82 in 7.0 mi ENE 17.3 mph 25.3 mph 0.02 in Rain Light Rain
11:35 AM 48.4 °F - 47.7 °F 97% 29.82 in 7.0 mi ENE 17.3 mph 27.6 mph 0.06 in Rain Rain
11:55 AM 48.4 °F - 47.5 °F 97% 29.81 in 7.0 mi ENE 19.6 mph 26.5 mph 0.08 in Rain Light Rain
12:15 PM 48.4 °F - 47.7 °F 97% 29.81 in 7.0 mi ENE 16.1 mph 26.5 mph 0.02 in Rain Rain
12:35 PM 48.6 °F - 47.7 °F 97% 29.80 in 10.0 mi ENE 15.0 mph 23.0 mph 0.02 in   Light Drizzle
12:55 PM 48.4 °F - 47.5 °F 97% 29.79 in 5.0 mi ENE 13.8 mph 27.6 mph 0.02 in Rain Light Rain
1:15 PM 48.6 °F - 47.7 °F 97% 29.78 in 5.0 mi ENE 15.0 mph 27.6 mph 0.01 in Rain Rain
1:35 PM 48.6 °F - 47.7 °F 97% 29.78 in 5.0 mi ENE 16.1 mph 24.2 mph 0.02 in   Light Drizzle
1:55 PM 48.4 °F - 47.7 °F 97% 29.77 in 7.0 mi ENE 18.4 mph 27.6 mph 0.03 in   Drizzle
2:15 PM 48.4 °F - 47.5 °F 97% 29.77 in 7.0 mi ENE 18.4 mph 26.5 mph N/A   Light Drizzle
2:35 PM 48.2 °F - 47.3 °F 97% 29.76 in 7.0 mi ENE 20.7 mph 29.9 mph 0.01 in Rain Light Rain
2:55 PM 48.0 °F - 46.8 °F 95% 29.76 in 4.0 mi ENE 17.3 mph 34.5 mph 0.04 in Rain Light Rain
3:15 PM 48.0 °F - 46.8 °F 95% 29.76 in 5.0 mi ENE 21.9 mph 29.9 mph 0.01 in   Light Drizzle
3:35 PM 48.2 °F - 46.9 °F 95% 29.76 in 7.0 mi ENE 19.6 mph 29.9 mph 0.01 in Rain Light Rain
3:55 PM 48.2 °F - 46.9 °F 95% 29.76 in 7.0 mi ENE 24.2 mph 34.5 mph 0.02 in   Light Drizzle
4:15 PM 48.0 °F - 46.8 °F 95% 29.76 in 7.0 mi ENE 18.4 mph 31.1 mph 0.01 in Rain Light Rain
4:35 PM 47.8 °F - 46.6 °F 95% 29.76 in 7.0 mi ENE 19.6 mph 32.2 mph 0.02 in Rain Light Rain
4:55 PM 47.7 °F - 46.4 °F 95% 29.76 in 7.0 mi ENE 21.9 mph 34.5 mph 0.03 in Rain Light Rain
5:15 PM 47.5 °F - 46.2 °F 95% 29.76 in 10.0 mi ENE 17.3 mph 27.6 mph N/A   Overcast
5:35 PM 47.3 °F - 45.7 °F 94% 29.77 in 10.0 mi ENE 19.6 mph 33.4 mph N/A   Overcast
5:55 PM 46.9 °F - 45.5 °F 95% 29.77 in 10.0 mi NE 21.9 mph 28.8 mph N/A   Overcast
6:15 PM 46.8 °F - 45.1 °F 94% 29.79 in 10.0 mi ENE 17.3 mph 33.4 mph N/A   Overcast
6:35 PM 46.6 °F - 45.5 °F 96% 29.80 in 5.0 mi ENE 16.1 mph 27.6 mph N/A Rain Light Rain
6:55 PM 46.0 °F 38.3 °F 45.0 °F 96% 29.80 in 4.0 mi NE 20.7 mph 32.2 mph 0.01 in Rain Light Rain
7:15 PM 45.9 °F 39.4 °F 45.3 °F 98% 29.81 in 4.0 mi NE 15.0 mph 25.3 mph 0.02 in Rain Rain
7:55 PM 45.0 °F 39.3 °F 43.9 °F 96% 29.82 in 3.0 mi NE 11.5 mph 25.3 mph 0.04 in Rain Light Rain
8:15 PM 44.8 °F 37.4 °F 43.5 °F 95% 29.83 in 5.0 mi NE 17.3 mph 23.0 mph N/A   Light Drizzle
8:35 PM 45.0 °F 38.9 °F 43.2 °F 93% 29.83 in 7.0 mi NE 12.7 mph 24.2 mph N/A   Overcast
8:55 PM 45.1 °F 39.5 °F 42.6 °F 91% 29.84 in 10.0 mi NE 11.5 mph 25.3 mph 0.01 in   Overcast
9:15 PM 45.0 °F 40.6 °F 42.8 °F 92% 29.84 in 10.0 mi NE 8.1 mph 20.7 mph N/A   Light Drizzle
9:35 PM 44.6 °F 38.8 °F 42.8 °F 93% 29.84 in 10.0 mi NE 11.5 mph 17.3 mph N/A Rain Light Rain
9:55 PM 44.6 °F 38.8 °F 42.6 °F 93% 29.84 in 10.0 mi NE 11.5 mph 19.6 mph N/A   Overcast
10:15 PM 45.1 °F 39.9 °F 43.0 °F 92% 29.85 in 10.0 mi NE 10.4 mph 18.4 mph N/A   Overcast
10:35 PM 44.6 °F 38.8 °F 43.0 °F 94% 29.85 in 10.0 mi NNE 11.5 mph - N/A   Overcast
10:55 PM 44.6 °F 39.2 °F 42.8 °F 93% 29.85 in 7.0 mi North 10.4 mph - N/A   Light Drizzle
11:15 PM 43.2 °F 37.9 °F 42.1 °F 96% 29.85 in 4.0 mi North 9.2 mph - N/A   Light Drizzle
11:35 PM 43.2 °F 37.9 °F 42.1 °F 96% 29.85 in 5.0 mi North 9.2 mph - 0.01 in   Light Drizzle
11:55 PM 43.3 °F 37.7 °F 41.5 °F 93% 29.85 in 10.0 mi North 10.4 mph - 0.01 in   Overcast